Voltar ao catálogo

STARLINK-30426

AtivoComunicaçõesVLEO
NORAD 57848·PAYLOAD·🇺🇸 United States

Lançado Sep 12, 2023 de Vandenberg Space Force Base

Loading…

Próximas Passagens (próximas 24 horas)

TLE

AtualizadoSource: CelesTrak SupGP

Época: Sep 14, 2026, 20:47 UTC

1 57848C 23141J   26257.86645833 -.00068992  00000+0 -20383-2 0  2578
2 57848  53.1573 124.0922 0001268  90.8972  32.0950 15.34426330    11

Acompanhe STARLINK-30426 em tempo real com AllMySat

Download on the App Store